This is the latest recevied weather packets stored in our database for station/object RN1M-13. If no packets are shown the sender has not sent any weather packets the latest 10 day(s).
| Time | Temp. | Humidity | Pressure | Rain* | Wind** | Luminosity | Snow |
|---|---|---|---|---|---|---|---|
| 1778039008 | 7.78° C | 100% | 1006 hPa | - | - | - | - |
| 1778038108 | 6.67° C | 100% | 1005.8 hPa | - | - | - | - |
| 1778037208 | 6.67° C | 100% | 1005.6 hPa | - | - | - | - |
| 1778036308 | 6.67° C | 100% | 1005.4 hPa | - | - | - | - |
| 1778035408 | 6.67° C | 100% | 1005.3 hPa | - | - | - | - |
| 1778034508 | 6.11° C | 100% | 1005.1 hPa | - | - | - | - |
| 1778033607 | 6.11° C | 100% | 1005 hPa | - | - | - | - |
| 1778032710 | 6.11° C | 100% | 1005 hPa | - | - | - | - |
| 1778031814 | 6.11° C | 100% | 1004.9 hPa | - | - | - | - |
| 1778030914 | 5.56° C | 100% | 1005.1 hPa | - | - | - | - |
| 1778030014 | 6.11° C | 100% | 1004.9 hPa | - | - | - | - |
| 1778029114 | 6.11° C | 100% | 1005 hPa | - | - | - | - |
| 1778028214 | 6.11° C | 100% | 1005.1 hPa | - | - | - | - |
| 1778027314 | 6.11° C | 100% | 1004.9 hPa | - | - | - | - |
| 1778026413 | 6.11° C | 100% | 1004.9 hPa | - | - | - | - |
| 1778025513 | 6.11° C | 100% | 1004.9 hPa | - | - | - | - |
| 1778024613 | 6.67° C | 100% | 1004.8 hPa | - | - | - | - |
| 1778023713 | 6.67° C | 100% | 1004.8 hPa | - | - | - | - |
| 1778022813 | 6.67° C | 100% | 1004.7 hPa | - | - | - | - |
| 1778021915 | 7.22° C | 100% | 1004.8 hPa | - | - | - | - |
| 1778021020 | 7.22° C | 100% | 1004.9 hPa | - | - | - | - |
| 1778020120 | 7.22° C | 100% | 1004.8 hPa | - | - | - | - |
| 1778019220 | 7.22° C | 100% | 1004.9 hPa | - | - | - | - |
| 1778018320 | 7.78° C | 100% | 1004.9 hPa | - | - | - | - |
| 1778017420 | 7.78° C | 100% | 1004.7 hPa | - | - | - | - |
* Rain since midnight (hover to see other rain measurements)
** Current wind speed in m/s (hover to see current wind gust speed)